Location: Palau
(42.3086°N, 3.1507°E)
Time: 22:33:34
(UTC+00:00)

STARLINK-1331 - Pass Details

Date: 26 May 2020
Orbit: 379 x 381 km, 53.0° (Epoch: 05 July)

Event Time Altitude Azimuth Distance (km) Brightness Sun altitude
Exits shadow 02:19:54 40° 267° (W) 614 3.5 -17.1°
Maximum altitude 02:20:48 59° 326° (NW) 475 3.3 -17.0°
Drops below altitude 10° 02:24:04 10° 47° (NE) 1,472 7.1 -16.6°
Sets 02:26:11 0° 51° (NE) 2,337 8.5 -16.4°
